Find Starlink 31946

NORAD ID: 59940 Int'l Des: 2024-106 Owner: SPXS Country: US Constellation: starlink operational
LEOCIRCULAR

現在のビュー

3D地球を読み込み中...

About Starlink 31946

Starlink 31946 (NORAD 59940) is a starlink constellation satellite (v2 mini) launched Jun 1, 2024 by SPXS of US. It operates in LEO, CIRCULAR orbit with a mass of 730.00 kg.

Starlink 31946について

説明を読み込み中...

次回通過

Passes for default location (London). Set your location on the main map for personalized predictions.

高度履歴

Loading altitude history...

軌道要素

1 59940U 24106U 26170.26975858 -.00000128 00000-0 48850-5 0 9998
2 59940 43.0048 119.2365 0001684 267.8853 92.1805 15.27581445106681
Epoch: Jun 19, 2026 • Age: 10 hours

現在のステータス

高度 486.9 km
速度 7.62 km/s
衛星直下点 -19.79°S, 159.4°E
打ち上げ日 Jun 1, 2024
運用期間 2 years
タイプ internet

技術仕様

分類 Payload
質量 730.00 kg
乾燥質量 700.00 kg
総質量 730.00 kg
長さ 0.30 m
直径 4.10 m
スパン 29.00 m
形状 Box + pan
製造者 SPXS
バスタイプ Starlink V2M
フェーズステータス In Orbit
所有者/国 SPXS/US

Most Searched